Aérodrome :
LOGIN :

S'inscrire | Disclaimer

   EN    FR    IT 

 










Légende :    VFR   VFR Marginal   IFR   IFR Intensif   IFR Très Intensif
Visi : 
Plafond : 
>= 8 km
>= 3000ft
5 à 8 km
1000 à 3000 ft
1500m à 5 km
500 à 1000 ft
800 à 1500m
200 à 500 ft
< 800m
< 200 ft
Symboles :   Orages  Brouillard  Fortes neiges  Fortes précipitations  Vent > 20 kt
SIGMETs :   Divers  Orages  Givrage  Turbulence  Onde Orograph.  Cendres Volcan.







- Altitude de l'aérodrome : 348 ft
- Code IATA : LDV
- Voir les cartes d'approche


LFRJ - Landivisiau

DERNIER METAR :
  • 211530Z AUTO 36008KT 330V030 9999 SCT017 SCT023 22/16 Q1020 NOSIG

METARs EXPIRÉS :
  • 211500Z AUTO 35009KT 310V020 9999 BKN019 BKN026 BKN031 22/17 Q1020 NOSIG
  • 211430Z AUTO 36009KT 9999 SCT021 BKN026 21/17 Q1021 NOSIG
  • 211400Z AUTO 35007KT 320V020 9999 BKN021 BKN029 BKN036 22/17 Q1021 NOSIG
  • 211330Z AUTO 33009KT 290V360 9999 BKN019 BKN026 BKN036 21/17 Q1021 NOSIG
  • 211300Z AUTO 34006KT 280V030 9999 BKN017 23/19 Q1021 TEMPO BKN010

Prévision TAF périmée.
Pas de NOTAMs connus pour ce terrain.



MET'MAP, la Météo Aéronautique d'un coup d'oeil ! - Copyright ORBIFLY Décembre 2007 - Disclaimer

ORBIFLY MET'MAP TEAM :

Programmation & Développement : Alexandra Zaïnal
Conception & Développement : Baudouin d'Aumeries
Co-Programmation & Développement : Marc-Olivier Méhu
Soutien technique & logistique : Manuel Goepfert

Contact : metmap@orbifly.com




SOURCES & CREDITS :

   NOAA